Starlink 32409

operational
NORAD ID: 61591 Int'l Des: 2024-187 Owner: SPXS Country: US Constellation: starlink
LEOCIRCULAR

关于 Starlink 32409

正在加载描述...

实时位置

正在加载3D地球...

即将过境

高度历史

Altitude vs Time

uPlot chart will show altitude changes over time

两行轨道根数

1 61591U 24187T 25306.20375131 -.00001454 00000-0 -26362-4 0 9991
2 61591 53.1610 284.4947 0001553 98.3073 261.8108 15.39630434 59741
Epoch: Nov 2, 2025 • Age: 27 hours

当前状态

高度 451.5 km
速度 7.65 km/s
星下点 47.93°N, 117.16°W
发射日期 Oct 18, 2024
运行时间 1 years
类型 internet

技术详情

分类 Payload
质量 730.00 kg
干质量 700.00 kg
总质量 730.00 kg
长度 0.30 m
直径 4.10 m
跨度 29.00 m
形状 Box + pan
制造商 SPXS
平台类型 Starlink V2M
阶段状态 In Orbit
所有者/国家 SPXS/US

大型星座

Loading constellations...